Coventry, United Kingdom

1:06 AM GMT on March 24, 2017 (GMT +0000)
Coventry

Weather History for EGBE - October, 2012

Change the Weather History Date:

Saturday, October 13, 2012

  Actual Average Record
Temperature  
Mean Temperature 46 °F -  
Max Temperature 53 °F 52 °F 69 °F (2001)
Min Temperature 39 °F 41 °F 35 °F (1999)
Degree Days  
Heating Degree Days 19    
Moisture  
Dew Point 43 °F    
Average Humidity 85    
Maximum Humidity 100    
Minimum Humidity 71    
Precipitation  
Precipitation 0.00 in - - ()
Sea Level Pressure  
Sea Level Pressure 29.64 in    
Wind  
Wind Speed 4 mph ()    
Max Wind Speed 9 mph    
Max Gust Speed -    
Visibility 5.5 miles    
Events Fog    
Averages and records for this station are not official NWS values.
T = Trace of Precipitation, MM = Missing Value Source: Averaged Metar Reports

Daily Weather History Graph

Daily Weather History Graph

Search for Another Location

Airport or City:

Trip Planner

Search our weather history database for the weather conditions in past years. The results will help you decide how hot, cold, wet, or windy it might be!

Date:

Astronomy

Oct. 13, 2012 Rise Set
Actual Time 7:28 AM BST 6:14 PM BST
Civil Twilight 6:53 AM BST 6:49 PM BST
Nautical Twilight 6:14 AM BST 7:28 PM BST
Astronomical Twilight 5:34 AM BST 8:08 PM BST
Moon 4:47 AM BST (10/13) 4:59 PM BST (10/13)
Length of Visible Light 11h 55m
Length of Day
10h 46m
Waning Crescent, 6% of the Moon is Illuminated
Oct 13
Waning Crescent
Oct 15
New
Oct 22
First Quarter
Oct 29
Full
Nov 7
Last Quarter

Hourly Weather History & Observations

Time (BST) Temp. Windchill Dew Point Humidity Pressure Visibility Wind Dir Wind Speed Gust Speed Precip Events Conditions
12:50 AM 42.8 °F - 41.0 °F 93% 29.71 in - Variable 2.3 mph - N/A   Clear
1:20 AM 42.8 °F 40.1 °F 41.0 °F 93% 29.68 in 6.2 mi SSE 4.6 mph - N/A   Partly Cloudy
1:50 AM 42.8 °F 39.3 °F 41.0 °F 93% 29.68 in 6.2 mi SSE 5.8 mph - N/A   Partly Cloudy
7:50 AM 39.2 °F - 39.2 °F 100% 29.62 in 1.9 mi Variable 2.3 mph - N/A Fog Fog
8:20 AM 41.0 °F - 39.2 °F 93% 29.65 in 4.3 mi SW 1.2 mph - N/A   Mostly Cloudy
8:50 AM 41.0 °F - 41.0 °F 100% 29.65 in 5.0 mi Variable 1.2 mph - N/A   Mostly Cloudy
9:20 AM 42.8 °F 41.1 °F 42.8 °F 100% 29.65 in 3.1 mi SW 3.5 mph - N/A   Mostly Cloudy
9:50 AM 42.8 °F 41.1 °F 42.8 °F 100% 29.65 in 3.1 mi Variable 3.5 mph - N/A   Mostly Cloudy
10:20 AM 44.6 °F 43.1 °F 44.6 °F 100% 29.65 in 3.1 mi Variable 3.5 mph - N/A   Scattered Clouds
10:50 AM 46.4 °F 44.3 °F 44.6 °F 93% 29.65 in 5.0 mi SW 4.6 mph - N/A   Scattered Clouds
11:20 AM 46.4 °F 44.3 °F 44.6 °F 93% 29.65 in 6.2 mi West 4.6 mph - N/A   Scattered Clouds
11:50 AM 48.2 °F - 44.6 °F 87% 29.65 in 6.2 mi West 6.9 mph - N/A   Scattered Clouds
12:20 PM 50.0 °F - 44.6 °F 82% 29.65 in 6.2 mi Variable 3.5 mph - N/A   Scattered Clouds
12:50 PM 51.8 °F - 44.6 °F 76% 29.65 in 6.2 mi NW 4.6 mph - N/A   Scattered Clouds
1:20 PM 51.8 °F - 44.6 °F 76% 29.62 in 6.2 mi NW 5.8 mph - N/A   Scattered Clouds
1:50 PM 51.8 °F - 42.8 °F 71% 29.62 in 6.2 mi West 6.9 mph - N/A   Scattered Clouds
2:20 PM 53.6 °F - 44.6 °F 72% 29.62 in 6.2 mi West 5.8 mph - N/A   Scattered Clouds
3:20 PM 51.8 °F - 42.8 °F 71% 29.62 in 6.2 mi WNW 4.6 mph - N/A   Scattered Clouds
3:50 PM 51.8 °F - 42.8 °F 71% 29.62 in 6.2 mi West 5.8 mph - N/A   Scattered Clouds
4:20 PM 50.0 °F - 42.8 °F 76% 29.62 in 6.2 mi West 6.9 mph - N/A   Scattered Clouds
4:50 PM 50.0 °F - 42.8 °F 76% 29.62 in 6.2 mi WNW 4.6 mph - N/A   Scattered Clouds
5:20 PM 50.0 °F - 41.0 °F 71% 29.62 in 6.2 mi NW 8.1 mph - N/A   Scattered Clouds
5:50 PM 50.0 °F - 42.8 °F 76% 29.62 in 6.2 mi NW 9.2 mph - N/A   Scattered Clouds
6:20 PM 48.2 °F - 42.8 °F 82% 29.65 in 6.2 mi NW 5.8 mph - N/A   Scattered Clouds
6:50 PM 48.2 °F - 41.0 °F 76% 29.65 in 6.2 mi North 8.1 mph - N/A   Scattered Clouds